START_TIME,STEP,MOV.,H8,t_acc.,H43,t_acc.,M25,t_acc.,H9,t_acc.
1979-07-05 21:00:30.220 ,0,0,1.,12.0,0.,12.0,0.,12.0,0.,12.0
1979-07-05 21:00:42.220 ,0,0,0.,12.0,0.,12.0,0.,12.0,0.,12.0
1979-07-05 21:00:54.220 ,0,0,1.,12.0,0.,12.0,0.,12.0,0.,12.0
1979-07-05 21:01:06.220 ,0,0,0.,12.0,0.,12.0,0.,12.0,0.,12.0
1979-07-05 21:01:18.220 ,0,0,0.,12.0,0.,12.0,0.,12.0,0.,12.0
1979-07-05 21:01:30.220 ,0,0,0.,12.0,0.,12.0,0.,12.0,0.,12.0
1979-07-05 21:01:42.210 ,1,0,0.,12.0,0.,12.0,0.,12.0,0.,12.0
1979-07-05 21:01:54.220 ,1,0,0.,12.0,0.,12.0,0.,12.0,0.,12.0
1979-07-05 21:02:06.210 ,1,0,0.,12.0,0.,12.0,0.,12.0,0.,12.0
1979-07-05 21:02:18.210 ,1,0,0.,12.0,0.,12.0,0.,12.0,0.,12.0
1979-07-05 21:02:30.210 ,2,0,0.,12.0,0.,12.0,0.,12.0,0.,12.0
1979-07-05 21:02:42.220 ,2,0,0.,12.0,0.,12.0,0.,12.0,0.,12.0
1979-07-05 21:02:54.210 ,2,0,0.,12.0,0.,12.0,0.,12.0,0.,12.0
1979-07-05 21:03:06.210 ,2,0,0.,12.0,0.,12.0,0.,12.0,0.,12.0
1979-07-05 21:03:18.210 ,3,0,0.,12.0,0.,12.0,0.,12.0,0.,12.0
1979-07-05 21:03:30.220 ,3,0,0.,12.0,0.,12.0,0.,12.0,0.,12.0
1979-07-05 21:03:42.210 ,3,0,1.,12.0,0.,12.0,0.,12.0,0.,12.0
1979-07-05 21:03:54.220 ,3,0,0.,12.0,0.,12.0,0.,12.0,0.,12.0
1979-07-05 21:04:06.210 ,4,0,0.,12.0,0.,12.0,0.,12.0,0.,12.0
1979-07-05 21:04:18.210 ,4,0,0.,12.0,0.,12.0,0.,12.0,0.,12.0
1979-07-05 21:04:30.210 ,4,0,0.,12.0,0.,12.0,0.,12.0,0.,12.0
1979-07-05 21:04:42.210 ,4,0,1.,12.0,0.,12.0,0.,12.0,0.,12.0
1979-07-05 21:04:54.210 ,5,0,0.,12.0,0.,12.0,0.,12.0,0.,12.0
1979-07-05 21:05:06.210 ,5,0,1.,12.0,0.,12.0,0.,12.0,0.,12.0
1979-07-05 21:05:18.210 ,5,0,0.,12.0,0.,12.0,0.,12.0,0.,12.0
1979-07-05 21:05:30.210 ,5,0,1.,12.0,0.,12.0,0.,12.0,0.,12.0
1979-07-05 21:05:42.210 ,6,0,0.,12.0,0.,12.0,0.,12.0,0.,12.0
1979-07-05 21:05:54.210 ,6,0,0.,12.0,0.,12.0,0.,12.0,0.,12.0
1979-07-05 21:06:06.210 ,6,0,0.,12.0,0.,12.0,0.,12.0,0.,12.0
1979-07-05 21:06:18.210 ,6,0,0.,12.0,0.,12.0,0.,12.0,0.,12.0
1979-07-05 21:06:30.210 ,7,0,0.,12.0,0.,12.0,0.,12.0,0.,12.0
1979-07-05 21:06:42.210 ,7,0,0.,12.0,0.,12.0,0.,12.0,0.,12.0
1979-07-05 21:06:54.210 ,7,0,0.,12.0,0.,12.0,0.,12.0,0.,12.0
1979-07-05 21:07:06.210 ,7,0,0.,12.0,0.,12.0,0.,12.0,0.,12.0
1979-07-05 21:07:18.210 ,7,0,0.,12.0,0.,12.0,0.,12.0,0.,12.0
1979-07-05 21:07:30.210 ,7,0,0.,12.0,0.,12.0,0.,12.0,0.,12.0
1979-07-05 21:07:42.210 ,7,0,0.,12.0,0.,12.0,0.,12.0,0.,12.0
1979-07-05 21:07:54.210 ,7,0,0.,12.0,0.,12.0,0.,12.0,0.,12.0
1979-07-05 21:08:06.210 ,6,0,0.,12.0,0.,12.0,0.,12.0,0.,12.0
1979-07-05 21:08:18.210 ,6,0,0.,12.0,0.,12.0,0.,12.0,0.,12.0
1979-07-05 21:08:30.210 ,6,0,0.,12.0,0.,12.0,0.,12.0,0.,12.0
1979-07-05 21:08:42.220 ,6,0,0.,12.0,0.,12.0,0.,12.0,0.,12.0
1979-07-05 21:08:54.220 ,5,0,0.,12.0,0.,12.0,0.,12.0,0.,12.0
1979-07-05 21:09:06.220 ,5,0,0.,12.0,0.,12.0,0.,12.0,0.,12.0
1979-07-05 21:09:18.220 ,5,0,1.,12.0,0.,12.0,0.,12.0,0.,12.0
1979-07-05 21:09:30.220 ,5,0,1.,12.0,0.,12.0,0.,12.0,0.,12.0
1979-07-05 21:09:42.220 ,4,0,0.,12.0,0.,12.0,0.,12.0,0.,12.0
1979-07-05 21:09:54.220 ,4,0,0.,12.0,0.,12.0,0.,12.0,0.,12.0
1979-07-05 21:10:06.220 ,4,0,0.,12.0,0.,12.0,0.,12.0,0.,12.0
1979-07-05 21:10:18.220 ,4,0,1.,12.0,0.,12.0,0.,12.0,0.,12.0
1979-07-05 21:10:30.220 ,3,0,0.,12.0,0.,12.0,0.,12.0,0.,12.0
1979-07-05 21:10:42.220 ,3,0,3.,12.0,0.,12.0,0.,12.0,0.,12.0
1979-07-05 21:10:54.220 ,3,0,0.,12.0,0.,12.0,0.,12.0,0.,12.0
1979-07-05 21:11:06.220 ,3,0,1.,12.0,0.,12.0,0.,12.0,0.,12.0
1979-07-05 21:11:18.220 ,2,0,1.,12.0,0.,12.0,0.,12.0,0.,12.0
1979-07-05 21:11:30.220 ,2,0,1.,12.0,0.,12.0,0.,12.0,0.,12.0
1979-07-05 21:11:42.220 ,2,0,0.,12.0,0.,12.0,0.,12.0,0.,12.0
1979-07-05 21:11:54.220 ,2,0,0.,12.0,0.,12.0,0.,12.0,0.,12.0
1979-07-05 21:12:06.220 ,1,0,0.,12.0,0.,12.0,0.,12.0,0.,12.0
1979-07-05 21:12:18.220 ,1,0,0.,12.0,0.,12.0,0.,12.0,0.,12.0
1979-07-05 21:12:30.220 ,1,0,0.,12.0,0.,12.0,0.,12.0,0.,12.0
1979-07-05 21:12:42.220 ,1,0,1.,12.0,0.,12.0,0.,12.0,0.,12.0
1979-07-05 21:12:54.220 ,0,0,0.,12.0,0.,12.0,0.,12.0,0.,12.0
1979-07-05 21:13:06.220 ,0,0,0.,12.0,0.,12.0,0.,12.0,0.,12.0
1979-07-05 21:13:18.220 ,0,0,0.,12.0,0.,12.0,0.,12.0,0.,12.0
1979-07-05 21:13:30.220 ,0,0,1.,12.0,0.,12.0,0.,12.0,0.,12.0
1979-07-05 21:13:42.220 ,0,0,0.,12.0,0.,12.0,0.,12.0,0.,12.0
1979-07-05 21:13:54.220 ,0,0,0.,12.0,0.,12.0,0.,12.0,0.,12.0
1979-07-05 21:14:06.220 ,0,0,0.,12.0,0.,12.0,0.,12.0,0.,12.0
1979-07-05 21:14:18.220 ,0,0,0.,12.0,0.,12.0,0.,12.0,0.,12.0
1979-07-05 21:14:30.220 ,1,0,1.,12.0,0.,12.0,0.,12.0,0.,12.0
1979-07-05 21:14:42.220 ,1,0,0.,12.0,0.,12.0,0.,12.0,0.,12.0
1979-07-05 21:14:54.220 ,1,0,0.,12.0,0.,12.0,0.,12.0,0.,12.0
1979-07-05 21:15:06.220 ,1,0,0.,12.0,0.,12.0,0.,12.0,0.,12.0
1979-07-05 21:15:18.220 ,2,0,2.,12.0,0.,12.0,0.,12.0,0.,12.0
1979-07-05 21:15:30.220 ,2,0,1.,12.0,0.,12.0,0.,12.0,0.,12.0
1979-07-05 21:15:42.220 ,2,0,1.,12.0,0.,12.0,0.,12.0,0.,12.0
1979-07-05 21:15:54.220 ,2,0,1.,12.0,0.,12.0,0.,12.0,0.,12.0
1979-07-05 21:16:06.220 ,3,0,0.,12.0,0.,12.0,0.,12.0,0.,12.0
1979-07-05 21:16:18.220 ,3,0,1.,12.0,0.,12.0,0.,12.0,0.,12.0
1979-07-05 21:16:30.220 ,3,0,0.,12.0,0.,12.0,0.,12.0,0.,12.0
1979-07-05 21:16:42.220 ,3,0,0.,12.0,0.,12.0,0.,12.0,0.,12.0
1979-07-05 21:16:54.220 ,4,0,1.,12.0,0.,12.0,0.,12.0,0.,12.0
1979-07-05 21:17:06.220 ,4,0,0.,12.0,0.,12.0,0.,12.0,0.,12.0
1979-07-05 21:17:18.210 ,4,0,3.,12.0,0.,12.0,0.,12.0,0.,12.0
1979-07-05 21:17:30.210 ,4,0,0.,12.0,0.,12.0,0.,12.0,0.,12.0
1979-07-05 21:17:42.210 ,5,0,1.,12.0,0.,12.0,0.,12.0,0.,12.0
1979-07-05 21:17:54.210 ,5,0,1.,12.0,0.,12.0,0.,12.0,0.,12.0
1979-07-05 21:18:06.210 ,5,0,0.,12.0,0.,12.0,0.,12.0,0.,12.0
1979-07-05 21:18:18.210 ,5,0,0.,12.0,0.,12.0,0.,12.0,0.,12.0
1979-07-05 21:18:30.210 ,6,0,1.,12.0,0.,12.0,0.,12.0,0.,12.0
1979-07-05 21:18:42.210 ,6,0,1.,12.0,0.,12.0,0.,12.0,0.,12.0
1979-07-05 21:18:54.210 ,6,0,1.,12.0,0.,12.0,0.,12.0,0.,12.0
1979-07-05 21:19:06.210 ,6,0,2.,12.0,0.,12.0,0.,12.0,0.,12.0
1979-07-05 21:19:18.210 ,7,0,2.,12.0,0.,12.0,0.,12.0,0.,12.0
1979-07-05 21:19:30.210 ,7,0,0.,12.0,0.,12.0,0.,12.0,0.,12.0
1979-07-05 21:19:42.210 ,7,0,0.,12.0,0.,12.0,0.,12.0,0.,12.0
1979-07-05 21:19:54.210 ,7,0,0.,12.0,0.,12.0,0.,12.0,0.,12.0
1979-07-05 21:20:06.210 ,7,0,0.,12.0,0.,12.0,0.,12.0,0.,12.0
1979-07-05 21:20:18.210 ,7,0,0.,12.0,0.,12.0,0.,12.0,0.,12.0
1979-07-05 21:20:30.210 ,7,0,0.,12.0,0.,12.0,0.,12.0,0.,12.0
1979-07-05 21:20:42.210 ,7,0,0.,12.0,0.,12.0,0.,12.0,0.,12.0
1979-07-05 21:20:54.210 ,6,0,0.,12.0,0.,12.0,0.,12.0,0.,12.0
1979-07-05 21:21:06.210 ,6,0,0.,12.0,0.,12.0,0.,12.0,0.,12.0
1979-07-05 21:21:18.210 ,6,0,3.,12.0,0.,12.0,0.,12.0,0.,12.0
1979-07-05 21:21:30.210 ,6,0,0.,12.0,0.,12.0,0.,12.0,0.,12.0
1979-07-05 21:21:42.210 ,5,0,0.,12.0,0.,12.0,0.,12.0,0.,12.0
1979-07-05 21:21:54.210 ,5,0,0.,12.0,0.,12.0,0.,12.0,0.,12.0
1979-07-05 21:22:06.210 ,5,0,1.,12.0,0.,12.0,0.,12.0,0.,12.0
1979-07-05 21:22:18.210 ,5,0,3.,12.0,0.,12.0,0.,12.0,0.,12.0
1979-07-05 21:22:30.210 ,4,0,0.,12.0,0.,12.0,0.,12.0,0.,12.0
1979-07-05 21:22:42.210 ,4,0,1.,12.0,0.,12.0,0.,12.0,0.,12.0
1979-07-05 21:22:54.210 ,4,0,0.,12.0,0.,12.0,0.,12.0,0.,12.0
1979-07-05 21:23:06.210 ,4,0,0.,12.0,0.,12.0,0.,12.0,0.,12.0
1979-07-05 21:23:18.210 ,3,0,0.,12.0,0.,12.0,0.,12.0,0.,12.0
1979-07-05 21:23:30.210 ,3,0,0.,12.0,0.,12.0,0.,12.0,0.,12.0
1979-07-05 21:23:42.210 ,3,0,2.,12.0,0.,12.0,0.,12.0,0.,12.0
1979-07-05 21:23:54.210 ,3,0,1.,12.0,0.,12.0,0.,12.0,0.,12.0
1979-07-05 21:24:06.210 ,2,0,0.,12.0,0.,12.0,0.,12.0,0.,12.0
1979-07-05 21:24:18.210 ,2,0,1.,12.0,0.,12.0,0.,12.0,0.,12.0
1979-07-05 21:24:30.210 ,2,0,1.,12.0,0.,12.0,0.,12.0,0.,12.0
1979-07-05 21:24:42.210 ,2,0,0.,12.0,0.,12.0,0.,12.0,0.,12.0
1979-07-05 21:24:54.210 ,1,0,0.,12.0,0.,12.0,0.,12.0,0.,12.0
1979-07-05 21:25:06.210 ,1,0,1.,12.0,0.,12.0,0.,12.0,0.,12.0
1979-07-05 21:25:18.210 ,1,0,1.,12.0,0.,12.0,0.,12.0,0.,12.0
1979-07-05 21:25:30.210 ,1,0,0.,12.0,0.,12.0,0.,12.0,0.,12.0
1979-07-05 21:25:42.210 ,0,0,1.,12.0,0.,12.0,0.,12.0,0.,12.0
1979-07-05 21:25:54.210 ,0,0,0.,12.0,0.,12.0,0.,12.0,0.,12.0
1979-07-05 21:26:06.210 ,0,0,0.,12.0,0.,12.0,0.,12.0,0.,12.0
1979-07-05 21:26:18.210 ,0,0,0.,12.0,0.,12.0,0.,12.0,0.,12.0
1979-07-05 21:26:30.210 ,0,0,0.,12.0,0.,12.0,0.,12.0,0.,12.0
1979-07-05 21:26:42.210 ,0,0,1.,12.0,0.,12.0,0.,12.0,0.,12.0
1979-07-05 21:26:54.210 ,0,0,1.,12.0,0.,12.0,0.,12.0,0.,12.0
1979-07-05 21:27:06.210 ,0,0,1.,12.0,0.,12.0,0.,12.0,0.,12.0
1979-07-05 21:27:18.210 ,1,0,1.,12.0,0.,12.0,0.,12.0,0.,12.0
1979-07-05 21:27:30.210 ,1,0,1.,12.0,0.,12.0,0.,12.0,0.,12.0
1979-07-05 21:27:42.210 ,1,0,1.,12.0,0.,12.0,0.,12.0,0.,12.0
1979-07-05 21:27:54.210 ,1,0,0.,12.0,0.,12.0,0.,12.0,0.,12.0
1979-07-05 21:28:06.210 ,2,0,0.,12.0,0.,12.0,0.,12.0,0.,12.0
1979-07-05 21:28:18.210 ,2,0,0.,12.0,0.,12.0,0.,12.0,0.,12.0
1979-07-05 21:28:30.210 ,2,0,1.,12.0,0.,12.0,0.,12.0,0.,12.0
1979-07-05 21:28:42.210 ,2,0,0.,12.0,0.,12.0,0.,12.0,0.,12.0
1979-07-05 21:28:54.210 ,3,0,3.,12.0,0.,12.0,0.,12.0,0.,12.0
1979-07-05 21:29:06.210 ,3,0,0.,12.0,0.,12.0,0.,12.0,0.,12.0
1979-07-05 21:29:18.210 ,3,0,1.,12.0,0.,12.0,0.,12.0,0.,12.0
1979-07-05 21:29:30.210 ,3,0,2.,12.0,0.,12.0,0.,12.0,0.,12.0
1979-07-05 21:29:42.210 ,4,0,1.,12.0,0.,12.0,0.,12.0,0.,12.0
1979-07-05 21:29:54.210 ,4,0,1.,12.0,0.,12.0,0.,12.0,0.,12.0
1979-07-05 21:30:06.210 ,4,0,0.,12.0,0.,12.0,0.,12.0,0.,12.0
1979-07-05 21:30:18.210 ,4,0,0.,12.0,0.,12.0,0.,12.0,0.,12.0
1979-07-05 21:30:30.210 ,5,0,0.,12.0,0.,12.0,0.,12.0,0.,12.0
1979-07-05 21:30:42.210 ,5,0,1.,12.0,0.,12.0,0.,12.0,0.,12.0
1979-07-05 21:30:54.210 ,5,0,0.,12.0,0.,12.0,0.,12.0,0.,12.0
1979-07-05 21:31:06.210 ,5,0,1.,12.0,0.,12.0,0.,12.0,0.,12.0
1979-07-05 21:31:18.210 ,6,0,4.,12.0,0.,12.0,0.,12.0,0.,12.0
1979-07-05 21:31:30.210 ,6,0,2.,12.0,0.,12.0,0.,12.0,0.,12.0
1979-07-05 21:31:42.210 ,6,0,0.,12.0,0.,12.0,0.,12.0,0.,12.0
1979-07-05 21:31:54.210 ,6,0,1.,12.0,0.,12.0,0.,12.0,0.,12.0
1979-07-05 21:32:06.210 ,7,0,0.,12.0,0.,12.0,0.,12.0,0.,12.0
1979-07-05 21:32:18.210 ,7,0,0.,12.0,0.,12.0,0.,12.0,0.,12.0
1979-07-05 21:32:30.210 ,7,0,0.,12.0,0.,12.0,0.,12.0,0.,12.0
1979-07-05 21:32:42.210 ,7,0,0.,12.0,0.,12.0,0.,12.0,0.,12.0
1979-07-05 21:32:54.210 ,7,0,0.,12.0,0.,12.0,0.,12.0,0.,12.0
1979-07-05 21:33:06.210 ,7,0,0.,12.0,0.,12.0,0.,12.0,0.,12.0
1979-07-05 21:33:18.210 ,7,0,0.,12.0,0.,12.0,0.,12.0,0.,12.0
1979-07-05 21:33:30.210 ,7,0,0.,12.0,0.,12.0,0.,12.0,0.,12.0
1979-07-05 21:33:42.210 ,6,0,0.,12.0,0.,12.0,0.,12.0,0.,12.0
1979-07-05 21:33:54.210 ,6,0,2.,12.0,0.,12.0,0.,12.0,0.,12.0
1979-07-05 21:34:06.210 ,6,0,2.,12.0,0.,12.0,0.,12.0,0.,12.0
1979-07-05 21:34:18.210 ,6,0,0.,12.0,0.,12.0,0.,12.0,0.,12.0
1979-07-05 21:34:30.210 ,5,0,0.,12.0,0.,12.0,0.,12.0,0.,12.0
1979-07-05 21:34:42.210 ,5,0,1.,12.0,0.,12.0,0.,12.0,0.,12.0
1979-07-05 21:34:54.210 ,5,0,3.,12.0,0.,12.0,0.,12.0,0.,12.0
1979-07-05 21:35:06.210 ,5,0,2.,12.0,0.,12.0,0.,12.0,0.,12.0
1979-07-05 21:35:18.210 ,4,0,1.,12.0,0.,12.0,0.,12.0,0.,12.0
1979-07-05 21:35:30.210 ,4,0,2.,12.0,0.,12.0,0.,12.0,0.,12.0
1979-07-05 21:35:42.210 ,4,0,3.,12.0,0.,12.0,0.,12.0,0.,12.0
1979-07-05 21:35:54.210 ,4,0,2.,12.0,0.,12.0,0.,12.0,0.,12.0
1979-07-05 21:36:06.210 ,3,0,2.,12.0,0.,12.0,0.,12.0,0.,12.0
1979-07-05 21:36:18.210 ,3,0,0.,12.0,0.,12.0,0.,12.0,0.,12.0
1979-07-05 21:36:30.210 ,3,0,2.,12.0,0.,12.0,0.,12.0,0.,12.0
1979-07-05 21:36:42.210 ,3,0,2.,12.0,0.,12.0,0.,12.0,0.,12.0
1979-07-05 21:36:54.210 ,2,0,4.,12.0,0.,12.0,0.,12.0,0.,12.0
1979-07-05 21:37:06.210 ,2,0,1.,12.0,0.,12.0,0.,12.0,0.,12.0
1979-07-05 21:37:18.210 ,2,0,0.,12.0,0.,12.0,0.,12.0,0.,12.0
1979-07-05 21:37:30.210 ,2,0,1.,12.0,0.,12.0,0.,12.0,0.,12.0
1979-07-05 21:37:42.210 ,1,0,0.,12.0,0.,12.0,0.,12.0,0.,12.0
1979-07-05 21:37:54.210 ,1,0,1.,12.0,0.,12.0,0.,12.0,0.,12.0
1979-07-05 21:38:06.210 ,1,0,0.,12.0,0.,12.0,0.,12.0,0.,12.0
1979-07-05 21:38:18.210 ,1,0,1.,12.0,0.,12.0,0.,12.0,0.,12.0
1979-07-05 21:38:30.210 ,0,0,0.,12.0,0.,12.0,0.,12.0,0.,12.0
1979-07-05 21:38:42.210 ,0,0,1.,12.0,0.,12.0,0.,12.0,0.,12.0
1979-07-05 21:38:54.210 ,0,0,1.,12.0,0.,12.0,0.,12.0,0.,12.0
1979-07-05 21:39:06.210 ,0,0,0.,12.0,0.,12.0,0.,12.0,0.,12.0
1979-07-05 21:39:18.210 ,0,0,2.,12.0,0.,12.0,0.,12.0,0.,12.0
1979-07-05 21:39:30.210 ,0,0,0.,12.0,0.,12.0,0.,12.0,0.,12.0
1979-07-05 21:39:42.210 ,0,0,1.,12.0,0.,12.0,0.,12.0,0.,12.0
1979-07-05 21:39:54.210 ,0,0,0.,12.0,0.,12.0,0.,12.0,0.,12.0
1979-07-05 21:40:06.210 ,1,0,0.,12.0,0.,12.0,0.,12.0,0.,12.0
1979-07-05 21:40:18.210 ,1,0,1.,12.0,0.,12.0,0.,12.0,0.,12.0
1979-07-05 21:40:30.210 ,1,0,0.,12.0,0.,12.0,0.,12.0,0.,12.0
1979-07-05 21:40:42.210 ,1,0,0.,12.0,0.,12.0,0.,12.0,0.,12.0
1979-07-05 21:40:54.210 ,2,0,0.,12.0,0.,12.0,0.,12.0,0.,12.0
1979-07-05 21:41:06.210 ,2,0,3.,12.0,0.,12.0,0.,12.0,0.,12.0
1979-07-05 21:41:18.210 ,2,0,0.,12.0,0.,12.0,0.,12.0,0.,12.0
1979-07-05 21:41:30.210 ,2,0,0.,12.0,0.,12.0,0.,12.0,0.,12.0
1979-07-05 21:41:42.210 ,3,0,2.,12.0,0.,12.0,0.,12.0,0.,12.0
1979-07-05 21:41:54.210 ,3,0,0.,12.0,0.,12.0,0.,12.0,0.,12.0
1979-07-05 21:42:06.210 ,3,0,0.,12.0,0.,12.0,0.,12.0,0.,12.0
1979-07-05 21:42:18.210 ,3,0,1.,12.0,0.,12.0,0.,12.0,0.,12.0
1979-07-05 21:42:30.210 ,4,0,0.,12.0,0.,12.0,0.,12.0,0.,12.0
1979-07-05 21:42:42.210 ,4,0,0.,12.0,0.,12.0,0.,12.0,0.,12.0
1979-07-05 21:42:54.210 ,4,0,1.,12.0,0.,12.0,0.,12.0,0.,12.0
1979-07-05 21:43:06.210 ,4,0,0.,12.0,0.,12.0,0.,12.0,0.,12.0
1979-07-05 21:43:18.210 ,5,0,0.,12.0,0.,12.0,0.,12.0,0.,12.0
1979-07-05 21:43:30.210 ,5,0,1.,12.0,0.,12.0,0.,12.0,0.,12.0
1979-07-05 21:43:42.210 ,5,0,1.,12.0,0.,12.0,0.,12.0,0.,12.0
1979-07-05 21:43:54.210 ,5,0,2.,12.0,0.,12.0,0.,12.0,0.,12.0
1979-07-05 21:44:06.210 ,6,0,1.,12.0,0.,12.0,0.,12.0,0.,12.0
1979-07-05 21:44:18.210 ,6,0,1.,12.0,0.,12.0,0.,12.0,0.,12.0
1979-07-05 21:44:30.210 ,6,0,0.,12.0,0.,12.0,0.,12.0,0.,12.0
1979-07-05 21:44:42.210 ,6,0,1.,12.0,0.,12.0,0.,12.0,0.,12.0
1979-07-05 21:44:54.210 ,7,0,2.,12.0,0.,12.0,0.,12.0,0.,12.0
1979-07-05 21:45:06.210 ,7,0,0.,12.0,0.,12.0,0.,12.0,0.,12.0
1979-07-05 21:45:18.210 ,7,0,0.,12.0,0.,12.0,0.,12.0,0.,12.0
1979-07-05 21:45:30.210 ,7,0,0.,12.0,0.,12.0,0.,12.0,0.,12.0
1979-07-05 21:45:42.210 ,7,0,0.,12.0,0.,12.0,0.,12.0,0.,12.0
1979-07-05 21:45:54.210 ,7,0,0.,12.0,0.,12.0,0.,12.0,0.,12.0
1979-07-05 21:46:06.210 ,7,0,0.,12.0,0.,12.0,0.,12.0,0.,12.0
1979-07-05 21:46:18.210 ,7,0,0.,12.0,0.,12.0,0.,12.0,0.,12.0
1979-07-05 21:46:30.210 ,6,0,0.,12.0,0.,12.0,0.,12.0,0.,12.0
1979-07-05 21:46:42.210 ,6,0,0.,12.0,0.,12.0,0.,12.0,0.,12.0
1979-07-05 21:46:54.210 ,6,0,0.,12.0,0.,12.0,0.,12.0,0.,12.0
1979-07-05 21:47:06.210 ,6,0,2.,12.0,0.,12.0,0.,12.0,0.,12.0
1979-07-05 21:47:18.210 ,5,0,1.,12.0,0.,12.0,0.,12.0,0.,12.0
1979-07-05 21:47:30.210 ,5,0,2.,12.0,0.,12.0,0.,12.0,0.,12.0
1979-07-05 21:47:42.210 ,5,0,1.,12.0,0.,12.0,0.,12.0,0.,12.0
1979-07-05 21:47:54.210 ,5,0,0.,12.0,0.,12.0,0.,12.0,0.,12.0
1979-07-05 21:48:06.210 ,4,0,1.,12.0,0.,12.0,0.,12.0,0.,12.0
1979-07-05 21:48:18.210 ,4,0,1.,12.0,0.,12.0,0.,12.0,0.,12.0
1979-07-05 21:48:30.210 ,4,0,0.,12.0,0.,12.0,0.,12.0,0.,12.0
1979-07-05 21:48:42.210 ,4,0,2.,12.0,0.,12.0,0.,12.0,0.,12.0
1979-07-05 21:48:54.210 ,3,0,0.,12.0,0.,12.0,0.,12.0,0.,12.0
1979-07-05 21:49:06.210 ,3,0,1.,12.0,0.,12.0,0.,12.0,0.,12.0
1979-07-05 21:49:18.210 ,3,0,0.,12.0,0.,12.0,0.,12.0,0.,12.0
1979-07-05 21:49:30.210 ,3,0,1.,12.0,0.,12.0,0.,12.0,0.,12.0
1979-07-05 21:49:42.210 ,2,0,1.,12.0,0.,12.0,0.,12.0,0.,12.0
1979-07-05 21:49:54.210 ,2,0,0.,12.0,0.,12.0,0.,12.0,0.,12.0
1979-07-05 21:50:06.210 ,2,0,1.,12.0,0.,12.0,0.,12.0,0.,12.0
1979-07-05 21:50:18.210 ,2,0,0.,12.0,0.,12.0,0.,12.0,0.,12.0
1979-07-05 21:50:30.210 ,1,0,1.,12.0,0.,12.0,0.,12.0,0.,12.0
1979-07-05 21:50:42.210 ,1,0,1.,12.0,0.,12.0,0.,12.0,0.,12.0
1979-07-05 21:50:54.210 ,0,0,3.,12.0,0.,12.0,0.,12.0,0.,12.0
1979-07-05 21:51:06.210 ,0,0,0.,12.0,0.,12.0,0.,12.0,0.,12.0
1979-07-05 21:51:24.810 ,0,0,0.,12.0,0.,12.0,0.,12.0,0.,12.0
1979-07-05 21:51:36.810 ,0,0,1.,12.0,0.,12.0,0.,12.0,0.,12.0
1979-07-05 21:51:42.210 ,0,0,2.,12.0,0.,12.0,0.,12.0,0.,12.0
1979-07-05 21:51:54.210 ,0,0,2.,12.0,0.,12.0,0.,12.0,0.,12.0
1979-07-05 21:52:06.210 ,0,0,1.,12.0,0.,12.0,0.,12.0,0.,12.0
1979-07-05 21:52:18.210 ,0,0,1.,12.0,0.,12.0,0.,12.0,0.,12.0
1979-07-05 21:52:30.210 ,0,0,0.,12.0,0.,12.0,0.,12.0,0.,12.0
1979-07-05 21:52:42.210 ,0,0,2.,12.0,0.,12.0,0.,12.0,0.,12.0
1979-07-05 21:52:54.210 ,7,0,0.,12.0,0.,12.0,0.,12.0,0.,12.0
1979-07-05 21:53:06.210 ,7,0,0.,12.0,0.,12.0,0.,12.0,0.,12.0
1979-07-05 21:53:18.210 ,7,0,0.,12.0,0.,12.0,0.,12.0,0.,12.0
1979-07-05 21:53:30.210 ,7,0,0.,12.0,0.,12.0,0.,12.0,0.,12.0
1979-07-05 21:53:42.210 ,7,0,0.,12.0,0.,12.0,0.,12.0,0.,12.0
1979-07-05 21:53:54.210 ,7,0,0.,12.0,0.,12.0,0.,12.0,0.,12.0
1979-07-05 21:54:06.210 ,7,0,0.,12.0,0.,12.0,0.,12.0,0.,12.0
1979-07-05 21:54:18.210 ,7,0,0.,12.0,0.,12.0,0.,12.0,0.,12.0
1979-07-05 21:54:30.210 ,7,0,0.,12.0,0.,12.0,0.,12.0,0.,12.0
1979-07-05 21:54:42.210 ,7,0,0.,12.0,0.,12.0,0.,12.0,0.,12.0
1979-07-05 21:54:54.210 ,7,0,0.,12.0,0.,12.0,0.,12.0,0.,12.0
1979-07-05 21:55:06.210 ,7,0,0.,12.0,0.,12.0,0.,12.0,0.,12.0
1979-07-05 21:55:18.210 ,3,1,0.,12.0,0.,12.0,0.,12.0,0.,12.0
1979-07-05 21:55:30.210 ,3,1,2.,12.0,0.,12.0,0.,12.0,0.,12.0
1979-07-05 21:55:42.210 ,0,1,2.,12.0,0.,12.0,0.,12.0,0.,12.0
1979-07-05 21:55:54.210 ,0,1,0.,12.0,0.,12.0,0.,12.0,0.,12.0
1979-07-05 21:56:06.210 ,4,1,0.,12.0,0.,12.0,0.,12.0,0.,12.0
1979-07-05 21:56:18.210 ,4,1,0.,12.0,0.,12.0,0.,12.0,0.,12.0
1979-07-05 21:56:30.210 ,7,1,1.,12.0,0.,12.0,0.,12.0,0.,12.0
1979-07-05 21:56:42.210 ,7,1,0.,12.0,0.,12.0,0.,12.0,0.,12.0
1979-07-05 21:56:54.210 ,3,1,1.,12.0,0.,12.0,0.,12.0,0.,12.0
1979-07-05 21:57:06.210 ,3,1,3.,12.0,0.,12.0,0.,12.0,0.,12.0
1979-07-05 21:57:18.210 ,0,1,3.,12.0,0.,12.0,0.,12.0,0.,12.0
1979-07-05 21:57:30.210 ,0,1,0.,12.0,0.,12.0,0.,12.0,0.,12.0
1979-07-05 21:57:42.210 ,4,1,1.,12.0,0.,12.0,0.,12.0,0.,12.0
1979-07-05 21:57:54.210 ,4,1,0.,12.0,0.,12.0,0.,12.0,0.,12.0
1979-07-05 21:58:06.210 ,7,1,1.,12.0,0.,12.0,0.,12.0,0.,12.0
1979-07-05 21:58:18.210 ,7,1,1.,12.0,0.,12.0,0.,12.0,0.,12.0
1979-07-05 21:58:30.210 ,3,1,0.,12.0,0.,12.0,0.,12.0,0.,12.0
1979-07-05 21:58:42.210 ,3,1,0.,12.0,0.,12.0,0.,12.0,0.,12.0
1979-07-05 21:58:54.210 ,0,1,0.,12.0,0.,12.0,0.,12.0,0.,12.0
1979-07-05 21:59:06.210 ,0,1,0.,12.0,0.,12.0,0.,12.0,0.,12.0
1979-07-05 21:59:18.210 ,0,0,0.,12.0,0.,12.0,0.,12.0,0.,12.0
1979-07-05 21:59:30.210 ,0,0,0.,12.0,0.,12.0,0.,12.0,0.,12.0
1979-07-05 21:59:42.210 ,0,0,1.,12.0,0.,12.0,0.,12.0,0.,12.0
1979-07-05 21:59:54.210 ,0,0,0.,12.0,0.,12.0,0.,12.0,0.,12.0
1979-07-05 22:00:06.210 ,3,1,0.,12.0,0.,12.0,0.,12.0,0.,12.0
1979-07-05 22:00:18.210 ,3,1,0.,12.0,0.,12.0,0.,12.0,0.,12.0
1979-07-05 22:00:30.210 ,0,1,0.,12.0,0.,12.0,0.,12.0,0.,12.0
1979-07-05 22:00:42.210 ,0,1,1.,12.0,0.,12.0,0.,12.0,0.,12.0
1979-07-05 22:00:54.210 ,4,1,0.,12.0,0.,12.0,0.,12.0,0.,12.0
1979-07-05 22:01:06.210 ,4,1,1.,12.0,0.,12.0,0.,12.0,0.,12.0
1979-07-05 22:01:18.210 ,7,1,1.,12.0,0.,12.0,0.,12.0,0.,12.0
1979-07-05 22:01:30.210 ,7,1,0.,12.0,0.,12.0,0.,12.0,0.,12.0
1979-07-05 22:01:42.210 ,3,1,0.,12.0,0.,12.0,0.,12.0,0.,12.0
1979-07-05 22:01:54.210 ,3,1,0.,12.0,0.,12.0,0.,12.0,0.,12.0
1979-07-05 22:02:06.210 ,0,1,0.,12.0,0.,12.0,0.,12.0,0.,12.0
1979-07-05 22:02:18.210 ,0,1,0.,12.0,0.,12.0,0.,12.0,0.,12.0
1979-07-05 22:02:30.210 ,4,1,0.,12.0,0.,12.0,0.,12.0,0.,12.0
1979-07-05 22:02:42.210 ,4,1,1.,12.0,0.,12.0,0.,12.0,0.,12.0
1979-07-05 22:02:54.210 ,7,1,0.,12.0,0.,12.0,0.,12.0,0.,12.0
1979-07-05 22:03:06.210 ,7,1,0.,12.0,0.,12.0,0.,12.0,0.,12.0
1979-07-05 22:03:18.210 ,3,1,0.,12.0,0.,12.0,0.,12.0,0.,12.0
1979-07-05 22:03:30.210 ,3,1,1.,12.0,0.,12.0,0.,12.0,0.,12.0
1979-07-05 22:03:42.210 ,0,1,0.,12.0,0.,12.0,0.,12.0,0.,12.0
1979-07-05 22:03:54.210 ,0,1,0.,12.0,0.,12.0,0.,12.0,0.,12.0
1979-07-05 22:04:06.210 ,4,1,1.,12.0,0.,12.0,1.,12.0,0.,12.0
1979-07-05 22:04:18.210 ,4,1,2.,12.0,0.,12.0,0.,12.0,0.,12.0
1979-07-05 22:04:30.210 ,7,1,1.,12.0,0.,12.0,0.,12.0,0.,12.0
1979-07-05 22:04:42.210 ,7,1,0.,12.0,0.,12.0,0.,12.0,0.,12.0
1979-07-05 22:04:54.210 ,3,1,0.,12.0,0.,12.0,0.,12.0,0.,12.0
1979-07-05 22:05:06.210 ,3,1,2.,12.0,0.,12.0,0.,12.0,0.,12.0
1979-07-05 22:05:18.210 ,0,1,1.,12.0,0.,12.0,0.,12.0,0.,12.0
1979-07-05 22:05:30.210 ,0,1,1.,12.0,0.,12.0,0.,12.0,0.,12.0
1979-07-05 22:05:42.210 ,0,0,0.,12.0,0.,12.0,0.,12.0,0.,12.0
1979-07-05 22:05:54.210 ,0,0,1.,12.0,0.,12.0,0.,12.0,0.,12.0
1979-07-05 22:06:06.210 ,0,0,0.,12.0,0.,12.0,0.,12.0,0.,12.0
1979-07-05 22:06:18.210 ,0,0,0.,12.0,0.,12.0,0.,12.0,0.,12.0
1979-07-05 22:06:30.210 ,5,0,0.,12.0,0.,12.0,0.,12.0,0.,12.0
1979-07-05 22:06:42.210 ,5,0,3.,12.0,0.,12.0,0.,12.0,0.,12.0
1979-07-05 22:06:54.210 ,5,0,0.,12.0,0.,12.0,0.,12.0,0.,12.0
1979-07-05 22:07:06.210 ,5,0,1.,12.0,0.,12.0,0.,12.0,0.,12.0
1979-07-05 22:07:18.210 ,4,0,0.,12.0,0.,12.0,0.,12.0,0.,12.0
1979-07-05 22:07:30.210 ,4,0,1.,12.0,0.,12.0,0.,12.0,0.,12.0
1979-07-05 22:07:42.210 ,4,0,0.,12.0,0.,12.0,0.,12.0,0.,12.0
1979-07-05 22:07:54.210 ,4,0,0.,12.0,0.,12.0,0.,12.0,0.,12.0
1979-07-05 22:08:06.210 ,3,0,0.,12.0,0.,12.0,0.,12.0,0.,12.0
1979-07-05 22:08:18.210 ,3,0,0.,12.0,0.,12.0,0.,12.0,0.,12.0
1979-07-05 22:08:30.210 ,3,0,0.,12.0,0.,12.0,0.,12.0,0.,12.0
1979-07-05 22:08:42.210 ,3,0,0.,12.0,0.,12.0,0.,12.0,0.,12.0
1979-07-05 22:08:54.210 ,2,0,0.,12.0,0.,12.0,0.,12.0,0.,12.0
1979-07-05 22:09:06.210 ,2,0,0.,12.0,0.,12.0,0.,12.0,0.,12.0
1979-07-05 22:09:18.210 ,2,0,1.,12.0,0.,12.0,0.,12.0,0.,12.0
1979-07-05 22:09:30.210 ,2,0,1.,12.0,0.,12.0,0.,12.0,0.,12.0
1979-07-05 22:09:42.210 ,1,0,0.,12.0,0.,12.0,0.,12.0,0.,12.0
1979-07-05 22:09:54.210 ,1,0,0.,12.0,0.,12.0,0.,12.0,0.,12.0
1979-07-05 22:10:06.210 ,1,0,0.,12.0,0.,12.0,0.,12.0,0.,12.0
1979-07-05 22:10:18.210 ,1,0,0.,12.0,0.,12.0,0.,12.0,0.,12.0
1979-07-05 22:10:30.210 ,0,0,2.,12.0,0.,12.0,0.,12.0,0.,12.0
1979-07-05 22:10:42.210 ,0,0,0.,12.0,0.,12.0,0.,12.0,0.,12.0
1979-07-05 22:10:54.210 ,0,0,0.,12.0,0.,12.0,0.,12.0,0.,12.0
1979-07-05 22:11:06.210 ,0,0,0.,12.0,0.,12.0,0.,12.0,0.,12.0
1979-07-05 22:11:18.210 ,0,0,1.,12.0,0.,12.0,0.,12.0,0.,12.0
1979-07-05 22:11:30.210 ,0,0,1.,12.0,0.,12.0,0.,12.0,0.,12.0
1979-07-05 22:11:42.210 ,0,0,0.,12.0,0.,12.0,0.,12.0,0.,12.0
1979-07-05 22:11:54.210 ,0,0,0.,12.0,0.,12.0,0.,12.0,0.,12.0
1979-07-05 22:12:06.210 ,1,0,0.,12.0,0.,12.0,0.,12.0,0.,12.0
1979-07-05 22:12:18.210 ,1,0,0.,12.0,0.,12.0,0.,12.0,0.,12.0
1979-07-05 22:12:30.210 ,1,0,0.,12.0,0.,12.0,0.,12.0,0.,12.0
1979-07-05 22:12:42.210 ,1,0,0.,12.0,0.,12.0,0.,12.0,0.,12.0
1979-07-05 22:12:54.210 ,2,0,0.,12.0,0.,12.0,0.,12.0,0.,12.0
1979-07-05 22:13:06.210 ,2,0,0.,12.0,0.,12.0,0.,12.0,0.,12.0
1979-07-05 22:13:18.210 ,2,0,1.,12.0,0.,12.0,0.,12.0,0.,12.0
1979-07-05 22:13:30.210 ,2,0,0.,12.0,0.,12.0,0.,12.0,0.,12.0
1979-07-05 22:13:42.210 ,3,0,0.,12.0,0.,12.0,0.,12.0,0.,12.0
1979-07-05 22:13:54.210 ,3,0,0.,12.0,0.,12.0,0.,12.0,0.,12.0
1979-07-05 22:14:06.210 ,3,0,1.,12.0,0.,12.0,0.,12.0,0.,12.0
1979-07-05 22:14:18.210 ,3,0,1.,12.0,0.,12.0,0.,12.0,0.,12.0
1979-07-05 22:14:30.210 ,4,0,1.,12.0,0.,12.0,0.,12.0,0.,12.0
1979-07-05 22:14:42.210 ,4,0,0.,12.0,0.,12.0,0.,12.0,0.,12.0
1979-07-05 22:14:54.210 ,4,0,1.,12.0,0.,12.0,0.,12.0,0.,12.0
1979-07-05 22:15:06.210 ,4,0,0.,12.0,0.,12.0,0.,12.0,0.,12.0
1979-07-05 22:15:18.210 ,5,0,0.,12.0,0.,12.0,0.,12.0,0.,12.0
1979-07-05 22:15:30.210 ,5,0,0.,12.0,0.,12.0,0.,12.0,0.,12.0
1979-07-05 22:15:42.210 ,5,0,1.,12.0,0.,12.0,0.,12.0,0.,12.0
1979-07-05 22:15:54.210 ,5,0,0.,12.0,0.,12.0,0.,12.0,0.,12.0
1979-07-05 22:16:06.210 ,6,0,1.,12.0,0.,12.0,0.,12.0,0.,12.0
1979-07-05 22:16:18.210 ,6,0,0.,12.0,0.,12.0,0.,12.0,0.,12.0
1979-07-05 22:16:30.210 ,6,0,0.,12.0,0.,12.0,0.,12.0,0.,12.0
1979-07-05 22:16:42.210 ,6,0,0.,12.0,0.,12.0,0.,12.0,0.,12.0
1979-07-05 22:16:54.210 ,7,0,0.,12.0,0.,12.0,0.,12.0,0.,12.0
1979-07-05 22:17:06.210 ,7,0,0.,12.0,0.,12.0,0.,12.0,0.,12.0
1979-07-05 22:17:18.210 ,7,0,0.,12.0,0.,12.0,0.,12.0,0.,12.0
1979-07-05 22:17:30.210 ,7,0,0.,12.0,0.,12.0,0.,12.0,0.,12.0